Location: Montclair
(37.8322°N, 122.2092°W)
Time: 06:34:52
(UTC+00:00)

Cosmos 1606 Rocket - Pass Details

Date: 05 December 2024
Orbit: 599 x 625 km, 82.5° (Epoch: 18 January)

Event Time Altitude Azimuth Distance (km) Brightness Sun altitude
Rises 02:32:27 0° 228° (SW) 2,838 8.0 -19.8°
Reaches altitude 10° 02:35:30 10° 252° (WSW) 1,939 7.3 -20.4°
Maximum altitude 02:37:59 15° 288° (WNW) 1,633 6.5 -20.9°
Drops below altitude 10° 02:40:30 10° 323° (NW) 1,944 6.4 -21.3°
Sets 02:43:35 0° 347° (NNW) 2,853 7.0 -21.9°
